Location: Newark
(44.6028°N, 124.0883°W)
Time: 08:37:42
(UTC+00:00)

Courier 1B Rocket - All Passes

Search period start: 20 October 2019 00:00
Search period end: 30 October 2019 00:00
Orbit: 920 x 1202 km, 28.2° (Epoch: 19 October)

Date Brightness Start Highest point End Pass type
(mag) Time Alt. Az. Time Alt. Az. Time Alt. Az.
20 Oct - 12:05:54 10° SSW 12:09:20 15° S 12:12:49 10° SE visible
20 Oct - 13:57:41 10° SW 14:01:36 17° S 14:05:36 10° SE visible
20 Oct - 15:52:06 10° SSW 15:53:51 11° SSW 15:55:38 10° S daylight
21 Oct - 11:06:00 10° SSW 11:08:43 13° SSE 11:11:25 10° SE visible
21 Oct - 12:57:01 10° SW 13:00:56 17° S 13:04:55 10° SE visible
21 Oct - 14:50:17 10° SW 14:53:12 13° SSW 14:56:10 10° SSE daylight
22 Oct - 10:07:06 10° S 10:08:07 10° SSE 10:09:06 10° SSE visible
22 Oct - 11:56:29 10° SSW 12:00:18 17° S 12:04:06 10° SE visible
22 Oct - 13:49:04 10° SW 13:52:33 15° S 13:56:05 10° SSE visible
23 Oct - 10:56:09 10° SSW 10:59:39 15° S 11:03:08 10° SE visible
23 Oct - 12:48:08 10° SW 12:51:55 17° S 12:55:42 10° SSE visible
23 Oct - 14:43:24 10° SSW 14:44:06 10° SSW 14:44:49 10° SSW daylight
24 Oct - 09:56:04 10° SSW 09:59:00 13° SSE 10:01:55 10° SE night (unlit)
24 Oct - 11:47:20 10° SW 11:51:16 17° S 11:55:09 10° SE visible
24 Oct - 13:40:53 10° SW 13:43:29 13° SSW 13:46:06 10° S visible
25 Oct - 08:56:37 10° S 08:58:22 11° SSE 09:00:07 10° SSE night (unlit)
25 Oct - 10:46:41 10° SW 10:50:36 17° S 10:54:28 10° SE visible
25 Oct - 12:39:29 10° SW 12:42:51 15° S 12:46:14 10° SSE visible
26 Oct - 09:46:11 10° SSW 09:49:57 16° S 09:53:37 10° SE night (unlit)
26 Oct - 11:38:24 10° SW 11:42:13 17° S 11:46:00 10° SSE visible
27 Oct - 08:45:55 10° SSW 08:49:17 14° SSE 08:52:33 10° SE night (unlit)
27 Oct - 10:37:29 10° SW 10:41:34 18° S 10:45:34 10° SE visible
27 Oct - 12:31:15 10° SW 12:33:47 13° SSW 12:36:18 10° S visible
28 Oct - 07:46:04 10° S 07:48:36 12° SSE 07:51:04 10° SE night (unlit)
28 Oct - 09:36:42 10° SW 09:40:53 18° S 09:44:59 10° SE night (unlit)
28 Oct - 11:29:42 10° SW 11:33:10 15° SSW 11:36:34 10° SSE visible
29 Oct - 08:36:03 10° SSW 08:40:12 17° S 08:44:12 10° SE night (unlit)
29 Oct - 10:28:29 10° SW 10:32:31 17° S 10:36:27 10° SSE visible
